sat.trackr.live / text

‹ back to catalog

STARLINK-5536

NORAD 57062 · 2023-088Q

PAYLOAD ACTIVE UNKNOWN

§ Identity

Operator
Country
US
Launch date
2023-06-22
Launch site
AFWTR
Launch vehicle
Mass (kg)
RCS (m²)

Purposes: comms

External: N2YO · Heavens-Above · Gunter

§ Orbital elements

Epoch: 2026-05-25T00:27:18.671040Z

Period
94.27 min
Inclination
43.0041°
Eccentricity
0.0001173
Mean motion
15.27573970 rev/d
Perigee alt
482.3 km
Apogee alt
483.9 km
Semi-major
6,861.2 km
B*
1.2880e-5
RAAN
25.0577°
Arg perigee
257.3040°
Mean anomaly
102.7680°
Rev number
16,217

§ Raw data

STARLINK-55361 57062U 23088Q   26145.01896610  .00000092  00000+0  12880-4 0  99932 57062  43.0041  25.0577 0001173 257.3040 102.7680 15.27573970162170

JSON: /api/v1/satellites/57062 · /tle

For live sub-satellite position, see the globe view (requires WebGL).

§ Visibility from observer

Set your observer location to see the next 7 days of passes ≥ 10°. The values pass through the URL so the page stays shareable.

No JS? Fill the form by hand. The geolocation button needs JavaScript.